Location: Aragoneses
(41.0275°N, 4.3847°W)
Time: 10:16:41
(UTC+00:00)

ISS - Pass Details

Date: 21 February 2026
Orbit: 416 x 426 km, 51.6° (Epoch: 10 March)

Event Time Altitude Azimuth Distance (km) Brightness Sun altitude
Exits shadow 06:19:00 - 316° (NW) 1,701 -1.1 -9.2°
Reaches altitude 10° 06:19:52 10° 327° (NNW) 1,495 -1.3 -9.0°
Maximum altitude 06:21:36 13° 359° (N) 1,302 -1.3 -8.7°
Drops below altitude 10° 06:23:21 10° 30° (NNE) 1,494 -0.6 -8.4°
Sets 06:26:18 0° 59° (ENE) 2,356 1.0 -7.8°
